User: anonymous   Login
Location: Vancouver
(49.2500°N, 123.1330°W)
Time: 02:57:46
(UTC-08:00)
Language:

deb Explorer IX - Orbit

View from above orbital plane
View from above orbital plane
View from above satellite
View from above satellite

Ground track
Ground track

The orbit data is extracted from the following two-line orbital elements,

1 00085U 61004C   15059.21148254  .00018691  00000-0  44887-2 0  9999
2 00085 038.7757 126.8284 0429345 267.4098 087.7440 14.09188597656274
Epoch (UTC): 28 February 2015 05:04:32
Eccentricity: 0.0429345
inclination: 38.7757°
perigee height: 551 km
apogee height: 1173 km
right ascension of ascending node: 126.8284°
argument of perigee: 267.4098°
revolutions per day: 14.09188597
mean anomaly at epoch: 87.7440°
orbit number at epoch: 65627

The dashed part of the orbit path shows where the satellite is in the earth's shadow,  

DLR